Wind_Gust
14 14 14 15 16 15 15 15 15 15 14 14 15 14 14 14 13 13 13 14 14 14 14 14 14 14 14 14 14 14 15 15 15 14 14 16 14 14 16 16 15 17
15 15 15 16 16 16 17 16 16 16 15 14 14 14 14 13 13 13 13 13 14 15 14 14 15 15 15 15 14 14 15 16 16 15 14 16 16 15 16 15 15 17
15 16 16 16 17 16 17 17 16 15 15 15 13 13 13 12 13 13 13 13 13 14 15 15 15 15 16 15 14 14 15 16 17 16 15 16 16 17 16 16 17 16
15 16 17 17 17 17 16 15 15 15 14 15 14 13 13 12 12 12 12 13 13 14 14 14 15 15 15 15 14 15 15 15 16 15 15 15 15 16 16 16 17 17
16 16 17 18 17 17 16 17 17 16 15 14 13 13 13 12 12 13 13 12 12 13 13 15 15 15 15 15 15 15 15 15 16 17 16 16 16 16 16 17 18 18
17 19 18 17 16 16 17 17 16 16 15 14 14 14 13 12 13 13 13 12 13 14 15 15 16 16 15 15 15 15 15 16 17 17 17 17 17 18 17 18 18 18
18 17 18 19 17 17 17 16 16 15 15 14 14 13 13 13 13 13 14 14 15 16 17 17 16 17 16 15 16 16 16 16 17 18 18 17 17 17 18 17 18 18
16 17 18 18 17 17 16 17 16 15 14 14 13 14 13 14 14 12 13 15 16 17 18 18 18 17 17 16 17 16 15 16 16 17 17 17 17 18 18 18 17 18
18 18 18 17 17 16 17 16 15 14 14 14 14 13 13 13 14 14 15 16 17 18 19 19 19 18 17 17 17 16 17 16 16 16 16 17 18 18 18 17 18 18
18 18 17 17 17 16 16 15 15 14 14 14 14 13 14 13 14 15 16 16 17 19 20 20 20 19 18 18 18 17 17 17 16 16 16 16 17 17 18 19 19 18
18 18 18 17 17 16 15 15 14 14 14 15 14 14 13 13 13 14 16 18 19 20 20 20 21 21 20 20 18 17 16 16 16 17 16 16 17 17 16 18 19 19
19 18 18 18 17 16 16 15 15 14 14 13 14 14 13 14 15 16 17 19 19 20 20 20 21 21 21 21 20 18 17 15 15 16 15 17 17 18 18 18 19 19
18 18 18 17 16 16 15 15 15 14 15 14 14 14 14 15 15 17 17 18 19 19 20 21 21 21 22 21 20 19 17 15 15 15 15 15 16 18 18 18 19 20
18 17 17 17 16 16 16 15 15 15 14 14 14 14 15 15 15 16 16 17 18 19 20 20 21 22 22 22 21 19 18 16 15 15 16 15 16 17 17 18 20 21
19 18 18 17 17 17 16 15 16 14 14 15 14 14 14 16 16 16 16 17 18 19 20 20 21 21 20 21 21 20 20 17 15 15 15 16 16 17 18 19 20 19
20 18 19 18 17 17 16 16 16 15 14 14 15 15 15 15 15 15 17 17 18 19 18 19 21 20 20 20 15 18 20 18 17 14 15 16 16 16 16 17 19 20
20 20 19 19 18 17 16 17 17 15 15 15 15 15 15 15 15 15 15 17 19 19 19 20 22 22 18 17 20 18 17 19 17 14 14 14 16 16 16 17 19 21
20 20 20 19 18 18 18 17 16 15 15 14 14 14 15 14 14 14 14 15 17 19 20 21 21 15 17 18 19 21 17 21 16 14 14 15 16 16 16 18 18 18
20 20 20 19 18 18 17 17 16 15 15 14 14 14 14 14 14 13 13 14 16 18 20 22 22 15 17 18 19 19 20 18 17 14 15 15 16 17 17 19 18 20
20 20 20 19 18 18 17 16 15 15 14 13 13 13 13 14 13 14 13 13 14 16 19 21 22 16 17 19 19 22 21 19 14 12 12 13 16 17 17 18 21 22
22 21 21 20 18 17 16 16 15 14 14 13 12 12 13 13 13 14 14 13 13 15 17 19 20 15 17 20 20 23 24 20 13 13 15 14 13 17 17 19 18 18
21 21 20 19 18 17 17 16 15 13 13 12 12 12 12 13 13 14 15 14 13 13 15 17 20 14 15 18 20 22 24 17 18 14 15 15 15 18 16 17 18 18
21 21 20 19 18 18 17 15 14 13 12 12 11 11 12 12 13 14 15 16 15 13 13 16 18 15 14 16 18 21 19 19 17 18 17 17 15 17 18 16 18 16
21 21 20 19 18 17 16 14 13 12 11 10 11 11 11 12 13 13 14 15 16 16 14 14 17 14 12 13 17 19 21 20 19 19 17 18 19 18 19 18 17 13
21 20 19 18 18 17 15 14 13 12 11 11 11 11 11 12 12 13 12 13 14 15 8 11 15 13 10 11 14 16 21 21 20 20 19 19 21 19 19 18 20 12
20 19 18 18 18 16 14 13 12 11 9 9 9 11 11 11 11 12 11 11 11 12 13 14 13 14 13 9 11 12 14 21 19 21 21 20 22 22 20 18 19 19
Wind_Speed
4 4 5 5 5 5 4 5 4 5 5 5 4 4 5 4 4 4 4 4 5 5 5 5 5 5 5 5 5 6 5 5 4 4 5 6 5 6 7 7 6 6
5 5 6 6 5 4 4 4 5 5 5 4 4 4 4 4 4 4 4 4 5 6 5 5 5 5 5 5 5 5 5 5 5 4 5 6 5 5 6 6 5 6
4 5 6 6 5 6 6 5 5 4 4 5 4 3 4 3 4 4 4 4 4 4 5 5 5 5 6 5 5 5 4 5 5 4 4 5 5 5 6 5 5 8
6 6 6 7 6 7 6 5 5 4 4 4 4 4 4 3 3 4 4 5 3 4 4 5 5 5 5 5 4 5 5 5 5 4 5 5 5 5 5 5 5 6
7 7 6 6 6 6 5 6 6 5 4 4 4 3 4 3 3 4 3 3 3 4 4 5 5 5 4 4 5 5 5 5 5 5 5 5 5 5 5 5 6 5
7 8 8 7 6 6 6 6 6 5 5 5 4 4 3 3 4 4 4 4 4 5 5 5 5 5 5 5 4 5 4 5 5 5 6 6 5 5 5 6 6 6
7 7 7 7 7 6 7 6 5 5 5 4 4 4 3 4 4 5 5 5 6 7 7 6 6 6 5 4 4 4 4 4 5 6 6 5 5 6 5 5 6 6
7 6 7 7 7 6 6 6 5 5 5 5 5 4 4 5 5 4 5 7 7 8 7 7 7 7 6 5 5 4 4 4 5 5 5 5 4 6 6 5 5 6
8 7 7 7 7 6 7 6 5 5 5 5 5 5 5 5 5 6 7 7 7 7 8 8 8 7 7 6 6 5 5 4 5 4 4 5 5 7 6 6 6 6
8 8 8 7 7 6 6 6 6 5 5 5 5 4 6 4 6 7 7 7 8 8 8 8 8 8 7 7 7 6 5 5 5 4 5 6 6 6 6 6 6 6
8 7 7 7 7 6 6 6 5 5 5 6 5 6 5 5 6 7 7 8 8 9 9 8 8 8 8 7 6 5 5 4 4 4 4 5 5 6 7 5 7 7
8 8 8 8 7 6 6 6 6 5 5 5 6 6 6 6 7 7 8 9 9 9 9 8 8 8 9 9 8 7 7 3 4 3 4 5 5 4 6 6 6 6
8 7 7 7 6 6 5 6 6 5 6 6 5 6 6 6 7 8 7 8 9 9 9 8 8 9 9 9 8 9 8 7 4 4 4 4 4 5 6 5 4 5
8 7 7 7 6 6 6 6 6 6 6 6 6 6 6 7 7 7 7 8 8 8 8 7 8 8 8 8 8 8 7 8 4 4 4 4 3 3 3 3 4 4
7 7 6 6 7 6 6 6 6 6 6 6 6 5 5 6 7 8 8 8 9 8 9 8 7 7 6 7 7 8 8 8 8 4 4 3 3 3 2 3 3 3
8 7 7 7 7 7 7 6 6 6 6 7 7 6 6 6 7 8 9 9 8 8 7 7 6 5 9 11 8 6 6 6 7 4 3 3 3 3 2 3 2 3
8 8 8 8 7 7 7 7 7 6 7 7 7 6 5 5 5 7 8 8 8 8 7 7 6 7 13 13 13 12 6 6 6 3 4 3 3 5 3 5 5 6
9 9 9 8 7 8 8 7 6 6 6 6 6 6 5 5 5 6 7 7 7 8 7 7 6 10 13 14 14 16 11 6 6 3 3 2 3 5 2 4 5 4
9 9 9 8 8 8 7 7 6 7 7 6 7 6 5 6 5 5 6 7 7 7 7 7 7 10 13 14 14 14 14 10 5 3 2 2 2 4 3 4 2 3
10 9 9 9 8 7 6 6 6 6 5 5 5 6 6 6 5 5 5 6 7 6 6 6 6 9 12 14 14 16 15 12 5 3 3 3 2 5 5 2 4 3
10 10 9 9 8 7 6 7 6 5 6 4 4 5 5 5 5 4 4 5 7 6 5 4 5 9 11 14 14 17 17 12 3 6 3 4 2 3 6 1 4 3
10 10 9 8 8 7 7 6 5 5 5 5 5 5 5 5 5 4 4 4 5 7 5 4 4 9 11 13 14 16 16 8 5 5 5 5 5 3 7 2 3 3
10 10 9 8 8 8 8 6 5 5 4 4 5 5 5 5 5 5 4 3 3 5 5 3 3 6 9 11 13 15 12 7 5 6 6 6 8 4 5 2 3 3
10 10 9 9 8 8 7 5 4 4 4 4 4 4 5 5 6 6 5 4 3 3 4 4 2 3 6 8 11 13 11 7 5 6 6 7 7 9 5 3 3 6
10 10 9 8 8 8 6 6 5 4 3 3 4 4 4 5 5 5 5 4 3 2 2 4 4 2 4 6 8 9 9 6 5 6 6 7 7 8 6 4 1 3
8 9 8 8 9 7 6 5 4 4 4 4 5 4 4 5 4 3 4 5 4 3 2 2 3 3 2 3 6 7 8 6 4 5 6 7 7 7 7 5 4 5
Wind_Direction
97 82 81 74 67 62 74 88 77 84 71 73 72 68 58 44 39 34 47 44 42 32 36 30 30 27 31 36 26 50 39 20 25 17 40 29 21 28 15 22 7 7
84 85 81 76 75 78 76 75 84 82 81 78 79 71 65 61 45 40 36 45 43 43 35 31 30 33 33 34 30 42 45 24 22 22 33 30 28 25 20 20 0 20
84 90 104 107 100 105 97 79 82 87 81 78 73 74 77 66 67 51 45 45 46 46 40 34 30 31 34 35 37 27 39 30 20 17 27 36 24 31 21 14 3 36
108 109 101 107 121 117 112 114 103 89 89 84 84 79 74 75 70 65 48 49 51 45 50 39 33 27 35 33 35 30 26 32 18 16 29 31 29 30 26 14 6 48
122 114 118 121 107 100 93 97 95 91 88 84 74 66 75 74 72 65 64 55 51 53 44 49 33 28 34 33 34 35 22 23 21 22 34 23 36 29 21 17 1 35
111 120 122 118 118 115 112 106 102 97 92 85 80 76 66 68 66 61 61 64 46 48 52 47 41 29 29 32 29 41 27 19 25 25 34 25 31 33 28 19 7 21
110 102 100 98 96 92 90 86 86 85 83 84 83 84 79 63 64 67 55 49 53 45 42 37 42 32 28 28 22 37 38 23 31 28 32 29 23 29 36 22 19 20
115 113 107 105 102 103 99 97 94 94 92 82 78 73 70 65 64 58 64 61 51 46 42 37 31 33 23 26 17 24 36 32 33 25 29 32 21 33 30 19 26 23
113 111 109 103 102 98 98 99 97 100 102 101 88 72 60 69 69 58 49 57 60 51 42 36 32 26 19 17 16 12 25 27 34 24 28 23 30 40 27 16 26 27
112 109 106 106 103 102 102 102 100 87 84 82 83 83 80 68 67 63 57 52 52 49 44 37 30 25 21 14 16 4 14 28 26 22 26 28 28 41 32 25 16 27
113 109 108 107 105 104 98 95 88 89 90 89 81 76 72 68 71 75 65 56 50 44 40 37 30 26 21 11 11 0 4 28 25 21 39 29 30 35 32 29 20 38
114 113 111 109 106 103 103 98 97 92 85 83 86 89 82 75 67 59 63 60 53 46 40 35 33 29 22 10 1 353 339 19 25 12 43 34 39 34 44 22 33 21
118 116 112 108 103 101 97 95 93 89 83 77 78 83 87 85 78 73 71 64 57 49 42 37 36 33 23 7 358 350 341 341 32 11 39 47 24 37 50 27 27 28
115 117 113 109 106 101 99 100 95 87 77 72 69 67 70 79 86 89 82 70 61 55 45 40 37 33 20 6 354 346 345 326 13 12 34 41 30 39 43 28 30 19
115 111 114 112 107 97 91 83 82 84 93 92 84 71 61 71 79 76 74 71 64 57 51 42 39 25 21 1 345 346 341 337 335 10 20 39 16 23 31 54 36 24
124 123 116 114 114 110 103 96 89 85 83 81 76 76 71 64 67 75 75 67 58 53 54 48 34 29 359 7 8 353 330 331 319 341 2 28 27 337 20 52 41 24
128 123 121 111 104 106 107 99 92 87 81 77 75 68 69 80 86 86 79 71 62 52 47 46 34 11 0 6 357 3 355 329 315 329 357 10 19 336 33 7 29 39
128 125 118 118 118 109 103 98 95 92 90 91 90 89 85 79 74 86 90 82 70 57 45 39 32 12 4 3 359 355 356 336 306 326 358 4 17 333 22 39 35 12
129 126 126 121 107 101 99 109 114 108 100 93 90 90 83 76 70 70 93 97 83 64 47 32 25 8 2 4 359 355 349 341 309 305 335 26 355 340 352 86 59 22
134 129 120 114 116 123 133 128 115 109 113 108 107 99 92 83 73 72 84 93 89 78 59 38 25 359 5 3 1 356 348 343 275 319 21 315 19 10 313 59 70 32
127 124 128 136 142 141 131 120 121 127 116 110 102 94 89 91 87 78 72 91 97 89 75 49 23 3 7 6 4 1 350 335 346 348 358 341 23 13 328 31 74 29
136 141 146 143 134 127 123 121 115 109 111 115 109 102 99 98 93 77 68 77 98 98 90 62 30 10 7 10 7 4 353 335 14 350 3 328 327 39 326 33 49 32
148 145 138 134 135 131 126 125 126 123 118 118 113 115 110 101 95 82 68 58 73 107 103 83 59 11 14 11 7 5 360 336 10 5 351 345 334 353 341 25 61 27
143 142 140 137 138 134 131 130 125 120 121 122 119 126 123 124 116 110 98 80 69 72 99 114 93 41 34 21 9 4 358 343 357 10 357 343 343 325 332 12 108 53
144 142 139 138 132 128 132 133 130 126 121 116 118 123 130 131 126 127 130 127 117 119 115 123 122 101 42 36 24 12 5 344 356 15 356 347 336 322 317 1 13 146
139 140 137 133 131 133 135 129 135 148 163 158 160 149 136 123 129 126 140 146 158 155 145 120 127 110 88 55 41 20 14 353 347 11 358 343 332 324 324 344 352 347